Weather History for KMFV - March, 2013

Change the Weather History Date:

Wednesday, March 13, 2013

  Actual Average (KWAL) Record (KWAL)
Temperature  
Mean Temperature 47 °F 44 °F  
Max Temperature 53 °F 53 °F 86 °F (1990)
Min Temperature 41 °F 35 °F 21 °F (1998)
Degree Days  
Heating Degree Days 18    
Month to date heating degree days  
Since 1 July heating degree days  
Cooling Degree Days 0    
Month to date cooling degree days  
Year to date cooling degree days  
Moisture  
Dew Point 30 °F    
Average Humidity 54    
Maximum Humidity 71    
Minimum Humidity 35    
Precipitation  
Precipitation 0.00 in 0.12 in 0.50 in (2002)
Month to date precipitation 1.61  
Year to date precipitation 7.41  
Sea Level Pressure  
Sea Level Pressure 29.96 in    
Wind  
Wind Speed 11 mph (NW)    
Max Wind Speed 22 mph    
Max Gust Speed 30 mph    
Visibility 10 miles    
Events      
T = Trace of Precipitation, MM = Missing Value Source: NWS Daily Summary

Daily Weather History Graph

Daily Weather History Graph

Search for Another Location

Airport or City:

Trip Planner

Search our weather history database for the weather conditions in past years. The results will help you decide how hot, cold, wet, or windy it might be!

Date:

Astronomy

Mar. 13, 2013 Rise Set
Actual Time 7:16 AM EDT 7:08 PM EDT
Civil Twilight 6:50 AM EDT 7:34 PM EDT
Nautical Twilight 6:20 AM EDT 8:05 PM EDT
Astronomical Twilight 5:49 AM EDT 8:35 PM EDT
Moon 7:57 AM EDT (3/13) 9:19 PM EDT (3/13)
Length of Visible Light 12h 44m
Length of Day
11h 51m
Waxing Crescent, 4% of the Moon is Illuminated
Mar 13
Waxing Crescent
Mar 19
First Quarter
Mar 27
Full
Apr 3
Last Quarter
Apr 10
New

Hourly Weather History & Observations

Time (EDT) Temp. Windchill Dew Point Humidity Pressure Visibility Wind Dir Wind Speed Gust Speed Precip Events Conditions
12:15 AM 48.2 °F - 37.4 °F 66% 29.91 in 10.0 mi NNW 16.1 mph 23.0 mph N/A   Clear
12:35 AM 48.2 °F - 37.4 °F 66% 29.92 in 10.0 mi NNW 16.1 mph 24.2 mph N/A   Scattered Clouds
12:55 AM 48.2 °F - 35.6 °F 62% 29.92 in 10.0 mi NNW 13.8 mph 21.9 mph N/A   Mostly Cloudy
1:35 AM 46.4 °F 39.8 °F 35.6 °F 66% 29.93 in 10.0 mi North 16.1 mph 21.9 mph N/A   Clear
1:55 AM 46.4 °F 40.7 °F 33.8 °F 62% 29.94 in 10.0 mi NNW 12.7 mph 21.9 mph N/A   Clear
2:16 AM 44.6 °F 38.8 °F 35.6 °F 71% 29.93 in 10.0 mi NNW 11.5 mph 16.1 mph N/A   Clear
2:35 AM 44.6 °F 38.1 °F 33.8 °F 66% 29.94 in 10.0 mi NNW 13.8 mph 24.2 mph N/A   Clear
2:55 AM 44.6 °F 38.8 °F 33.8 °F 66% 29.94 in 10.0 mi NNW 11.5 mph 21.9 mph N/A   Clear
3:15 AM 44.6 °F 38.8 °F 32.0 °F 61% 29.94 in 10.0 mi NNW 11.5 mph 21.9 mph N/A   Clear
3:35 AM 44.6 °F 38.1 °F 32.0 °F 61% 29.95 in 10.0 mi NNW 13.8 mph 21.9 mph N/A   Clear
3:55 AM 44.6 °F 39.2 °F 30.2 °F 57% 29.95 in 10.0 mi NNW 10.4 mph 20.7 mph N/A   Clear
4:16 AM 44.6 °F 38.8 °F 30.2 °F 57% 29.96 in 10.0 mi NNW 11.5 mph 19.6 mph N/A   Clear
4:35 AM 42.8 °F 37.0 °F 30.2 °F 61% 29.96 in 10.0 mi NNW 10.4 mph 18.4 mph N/A   Clear
4:55 AM 42.8 °F 36.6 °F 32.0 °F 66% 29.96 in 10.0 mi NNW 11.5 mph 18.4 mph N/A   Clear
5:20 AM 42.8 °F 37.0 °F 32.0 °F 66% 29.97 in 10.0 mi NNW 10.4 mph - N/A   Clear
5:39 AM 42.8 °F 37.0 °F 30.2 °F 61% 29.97 in 10.0 mi NNW 10.4 mph - N/A   Clear
5:55 AM 42.8 °F 37.0 °F 30.2 °F 61% 29.98 in 10.0 mi NNW 10.4 mph - N/A   Clear
6:15 AM 42.8 °F 38.6 °F 30.2 °F 61% 29.98 in 10.0 mi NNW 6.9 mph - N/A   Clear
6:36 AM 42.8 °F 40.1 °F 30.2 °F 61% 29.98 in 10.0 mi NNW 4.6 mph - N/A   Clear
6:55 AM 42.8 °F 39.3 °F 30.2 °F 61% 29.98 in 10.0 mi North 5.8 mph - N/A   Clear
7:15 AM 41.0 °F 37.1 °F 28.4 °F 61% 29.98 in 10.0 mi NNW 5.8 mph - N/A   Clear
7:35 AM 41.0 °F 38.0 °F 28.4 °F 61% 29.98 in 10.0 mi North 4.6 mph - N/A   Clear
7:55 AM 42.8 °F 41.1 °F 28.4 °F 57% 29.99 in 10.0 mi NNW 3.5 mph - N/A   Clear
8:15 AM 42.8 °F 41.1 °F 30.2 °F 61% 29.99 in 10.0 mi North 3.5 mph - N/A   Clear
8:35 AM 44.6 °F 42.2 °F 30.2 °F 57% 29.99 in 10.0 mi NNW 4.6 mph - N/A   Clear
8:55 AM 46.4 °F 43.5 °F 30.2 °F 53% 29.99 in 10.0 mi NNW 5.8 mph - N/A   Clear
9:15 AM 44.6 °F 40.2 °F 28.4 °F 53% 29.99 in 10.0 mi NNW 8.1 mph - N/A   Clear
9:35 AM 46.4 °F 43.5 °F 30.2 °F 53% 30.00 in 10.0 mi NNW 5.8 mph - N/A   Clear
9:55 AM 46.4 °F 41.5 °F 30.2 °F 53% 30.00 in 10.0 mi NW 10.4 mph - N/A   Clear
10:15 AM 46.4 °F 40.4 °F 26.6 °F 46% 30.00 in 10.0 mi NW 13.8 mph - N/A   Clear
10:35 AM 48.2 °F - 26.6 °F 43% 29.99 in 10.0 mi NNW 10.4 mph 17.3 mph N/A   Clear
10:55 AM 48.2 °F - 28.4 °F 46% 29.99 in 10.0 mi WNW 8.1 mph - N/A   Clear
11:15 AM 48.2 °F - 28.4 °F 46% 29.99 in 10.0 mi West 9.2 mph - N/A   Clear
11:35 AM 48.2 °F - 26.6 °F 43% 29.99 in 10.0 mi West 9.2 mph - N/A   Clear
11:55 AM 48.2 °F - 26.6 °F 43% 29.98 in 10.0 mi WNW 8.1 mph - N/A   Clear
12:17 PM 48.2 °F - 24.8 °F 40% 29.98 in 10.0 mi WNW 8.1 mph - N/A   Clear
12:35 PM 50.0 °F - 26.6 °F 40% 29.97 in 10.0 mi WNW 9.2 mph - N/A   Clear
12:55 PM 50.0 °F - 24.8 °F 37% 29.96 in 10.0 mi WNW 8.1 mph - N/A   Clear
1:15 PM 50.0 °F - 24.8 °F 37% 29.96 in 10.0 mi WNW 6.9 mph - N/A   Clear
1:35 PM 51.8 °F - 24.8 °F 35% 29.95 in 10.0 mi WNW 9.2 mph - N/A   Clear
1:56 PM 51.8 °F - 26.6 °F 38% 29.94 in 10.0 mi West 8.1 mph - N/A   Unknown
2:15 PM 51.8 °F - 26.6 °F 38% 29.93 in 10.0 mi SW 5.8 mph 11.5 mph N/A   Clear
2:35 PM 53.6 °F - 26.6 °F 35% 29.92 in 10.0 mi WSW 8.1 mph - N/A   Scattered Clouds
2:55 PM 53.6 °F - 26.6 °F 35% 29.91 in 10.0 mi West 10.4 mph - N/A   Clear
3:15 PM 53.6 °F - 28.4 °F 38% 29.91 in 10.0 mi WSW 9.2 mph - N/A   Scattered Clouds
3:55 PM 51.8 °F - 28.4 °F 41% 29.92 in 10.0 mi WSW 10.4 mph 21.9 mph N/A   Scattered Clouds
4:15 PM 50.0 °F - 28.4 °F 43% 29.92 in 10.0 mi WSW 8.1 mph - N/A   Scattered Clouds
4:35 PM 48.2 °F - 30.2 °F 50% 29.94 in 10.0 mi West 8.1 mph 29.9 mph N/A   Overcast
4:55 PM 48.2 °F - 30.2 °F 50% 29.94 in 10.0 mi WSW 12.7 mph 18.4 mph N/A   Mostly Cloudy
5:17 PM 48.2 °F - 32.0 °F 54% 29.93 in 10.0 mi West 6.9 mph - N/A   Mostly Cloudy
5:35 PM 48.2 °F - 32.0 °F 54% 29.93 in 10.0 mi WNW 10.4 mph - N/A   Scattered Clouds
5:55 PM 48.2 °F - 30.2 °F 50% 29.93 in 10.0 mi WNW 10.4 mph - N/A   Scattered Clouds
6:15 PM 46.4 °F 42.4 °F 32.0 °F 57% 29.94 in 10.0 mi West 8.1 mph - N/A   Clear
6:35 PM 46.4 °F 42.9 °F 32.0 °F 57% 29.94 in 10.0 mi West 6.9 mph - N/A   Mostly Cloudy
6:55 PM 46.4 °F 44.3 °F 32.0 °F 57% 29.94 in 10.0 mi West 4.6 mph - N/A   Scattered Clouds
7:15 PM 44.6 °F 42.2 °F 30.2 °F 57% 29.95 in 10.0 mi West 4.6 mph - N/A   Clear
7:35 PM 44.6 °F 40.7 °F 32.0 °F 61% 29.96 in 10.0 mi WNW 6.9 mph - N/A   Clear
7:55 PM 44.6 °F 39.7 °F 32.0 °F 61% 29.96 in 10.0 mi WNW 9.2 mph 19.6 mph N/A   Clear
8:15 PM 44.6 °F 40.7 °F 33.8 °F 66% 29.97 in 10.0 mi NW 6.9 mph - N/A   Clear
8:35 PM 44.6 °F 42.2 °F 33.8 °F 66% 29.97 in 10.0 mi WNW 4.6 mph - N/A   Clear
8:55 PM 42.8 °F 41.1 °F 33.8 °F 70% 29.98 in 10.0 mi WNW 3.5 mph - N/A   Scattered Clouds
9:15 PM 42.8 °F 38.6 °F 32.0 °F 66% 29.98 in 10.0 mi WNW 6.9 mph - N/A   Mostly Cloudy
9:35 PM 44.6 °F 37.8 °F 30.2 °F 57% 29.99 in 10.0 mi NW 15.0 mph 20.7 mph N/A   Mostly Cloudy
9:55 PM 44.6 °F 38.4 °F 28.4 °F 53% 30.00 in 10.0 mi NW 12.7 mph 18.4 mph N/A   Scattered Clouds
10:15 PM 44.6 °F 38.8 °F 30.2 °F 57% 30.00 in 10.0 mi NNW 11.5 mph 16.1 mph N/A   Mostly Cloudy
10:35 PM 44.6 °F 36.9 °F 26.6 °F 49% 30.02 in 10.0 mi NNW 18.4 mph 24.2 mph N/A   Overcast
10:55 PM 44.6 °F 36.6 °F 26.6 °F 49% 30.03 in 10.0 mi NNW 19.6 mph 25.3 mph N/A   Overcast
11:15 PM 42.8 °F 35.4 °F 24.8 °F 49% 30.03 in 10.0 mi NNW 15.0 mph 26.5 mph N/A   Overcast
11:35 PM 42.8 °F 34.8 °F 21.2 °F 42% 30.04 in 10.0 mi NW 17.3 mph 26.5 mph N/A   Overcast
11:55 PM 42.8 °F 33.8 °F 19.4 °F 39% 30.04 in 10.0 mi NW 21.9 mph 29.9 mph N/A   Mostly Cloudy